Regional Weather Roundup
Issued by NWS Sterling, VA

Home | Current Version | Previous Version | Text Only | Print | Product List | Glossary On
Versions: 1 2 3 4 5 6 7 8 9 10 11 12 13 14 15 16 17 18 19 20 21 22 23 24 25 26 27 28 29 30 31 32 33 34 35 36 37 38 39 40 41 42 43 44 45 46 47 48 49 50
754
ASUS41 KLWX 260511
RWRLWX

REGIONAL WEATHER ROUNDUP
NATIONAL WEATHER SERVICE BALTIMORE MD/WASHINGTON DC
100 AM EDT FRI AUG 26 2016

Note: "FAIR" indicates few or no clouds below 12,000 feet
with no significant weather and/or obstructions to visibility.
 TC=TEMPERATURE CELSIUS

 * =Non NWS site. Station does not report precipitation (e.g. rain,
    snow, etc.), thunder, or fog.

DCZ001-MDZ009-015-VAZ040>042-051-053>054-260600-
WASHINGTON METRO

CITY           SKY/WX    TMP DP  RH WIND       PRES   REMARKS
WASHINGTON NAT FAIR      80  75  84 S7        30.02S
DULLES         FAIR      78  73  84 S5        30.02S
ANDREWS AFB    FAIR      77  72  85 S6        30.01F
FT BELVOIR     FAIR      73  73 100 CALM      30.01S FOG
QUANTICO       FAIR      78  75  90 CALM      30.02F
LEESBURG*      FAIR      79  77  94 SW5       30.03S
MANASSAS*      FAIR      75  73  94 CALM      30.02F
GAITHERSBURG*  FAIR      75  70  83 SE3       30.07S

$$

MDZ006>007-011-014-260600-
BALTIMORE METRO

CITY           SKY/WX    TMP DP  RH WIND       PRES   REMARKS
BWI AIRPORT    FAIR      77  72  84 SW3       30.01S
MD SCIENCE CTR   N/A     81  72  74 MISG      30.01S
MARTIN STATE   FAIR      79  79 100 SE3       30.02S
ANNAPOLIS      FAIR      80  73  79 S6        30.00S
FORT MEADE*    FAIR     N/A N/A N/A CALM      30.04S

$$

MDZ012-015-019>023-260600-
MARYLAND EASTERN SHORE

CITY           SKY/WX    TMP DP  RH WIND       PRES   REMARKS
OCEAN CITY     FAIR      79  71  76 SW10      30.05S
SALISBURY      FAIR      73  70  90 S5        30.04S
BAY BRIDGE AP* FAIR      81  75  83 S6        30.02R
EASTON*        FAIR      78  76  94 SW3       30.06F

$$

MDZ017>025-260600-
SOUTHERN MARYLAND

CITY           SKY/WX    TMP DP  RH WIND       PRES   REMARKS
PATUXENT RIVER FAIR      78  71  79 SW6       30.02S
ST INIGOES     FAIR      79  73  82 S6        30.02F
LEONARDTOWN*   FAIR      77  70  78 S3        30.04F

$$

MDZ003>005-260600-
NORTH CENTRAL MARYLAND

CITY           SKY/WX    TMP DP  RH WIND       PRES   REMARKS
FREDERICK*     FAIR      73  73 100 CALM      30.04S
HAGERSTOWN APT FAIR      80  73  79 S5        30.03R

$$

MDZ501>502-260600-
WESTERN MARYLAND

CITY           SKY/WX    TMP DP  RH WIND       PRES   REMARKS
OAKLAND*       FAIR      72  70  94 W9G16     30.19R
CUMBERLAND*    FAIR      77  73  88 CALM      30.09R

$$

VAZ025>031-260600-
SHENANDOAH VALLEY

CITY           SKY/WX    TMP DP  RH WIND       PRES   REMARKS
WINCHESTER*    FAIR      77  72  83 CALM      30.04S
FRONT ROYAL*   FAIR      73  73 100 S3        30.04S
LURAY*         FAIR     N/A N/A N/A CALM      30.06S HAZE
NEW MARKET*    FAIR     N/A N/A N/A CALM      30.05F
STAUNTON*      FAIR      70  69  96 CALM      30.11S
WAYNESBORO*    FAIR      73  71  93 CALM      30.11S

$$

WVZ021-048>050-054>055-260600-
EASTERN WEST VIRGINIA PANHANDLE

CITY           SKY/WX    TMP DP  RH WIND       PRES   REMARKS
MARTINSBURG    FAIR      74  73  97 CALM      30.03R
PETERSBURG*    FAIR      76  72  86 CALM      30.06S

$$

VAZ036>039-050-260600-
CENTRAL FOOTHILLS

CITY           SKY/WX    TMP DP  RH WIND       PRES   REMARKS
CHARLOTTESVILL FAIR      78  75  90 W3        30.05S
CULPEPER*      FAIR      74  74 100 CALM      30.04S FOG
ORANGE*          N/A     75  75 100 CALM      30.05F
GORDONSVILLE*  FAIR      75  75 100 CALM      30.03F
WARRENTON*     FOG       73  69  85 CALM      30.02F VSB 1/2

$$

VAZ055>057-260600-
NORTH AND CENTRAL PIEDMONT

CITY           SKY/WX    TMP DP  RH WIND       PRES   REMARKS
FREDERICKSBRG* FAIR      78  76  94 CALM      30.01S
STAFFORD*      FAIR      73  72  97 CALM      30.06F

$$

NCZ024-NYZ072-PAZ021-071-VAZ022-071-260600-
OTHER REGIONAL OBSERVATIONS

CITY           SKY/WX    TMP DP  RH WIND       PRES   REMARKS
NEW YORK CITY    N/A     79  70  73 MISG        N/A
PHILADELPHIA   FAIR      78  69  73 S9        30.01F
PITTSBURGH     MOCLDY    76  72  87 CALM      30.07R
ROANOKE        FAIR      76  71  85 N5        30.13R
RICHMOND       FAIR      76  69  79 S5        30.05R
RALEIGH        FAIR      79  69  71 S6        30.08S

$$

ANZ530>537-260600-
MARINE OBSERVATIONS

STATION/POSITION TIME  TEMP    WIND        PRES
                       AIR SEA DIR/SP/G
                 (UTC) (F)     (DEG/KT/KT) (MB)
THOMAS PT LIGHT  0500   81 81  190/ 14/ 15 1017.5S
BALT KEY BRIDGE  0448   80     180/  4/  5 1016.1R
COVE POINT       0448   79     200/  8/  9 1017.1F
LEWISETTA        0448   78 82  230/  8/  9 1016.6R
SOLOMONS ISLAND  0442   80 84  210/  9/ 11   N/A
PINEY POINT      0448          230/ 11/ 11   N/A

$$





USA.gov is the U.S. government's official web portal to all federal, state and local government web resources and services.